Wetterdaten: aktuell Donnerstag, 25.04.2019 02:00
Datum Zeit Temp. I. Temp. 2m Temp. 5cm Temp. -10cm Feuchte I. Feuchte A. Luftdruck Regen Wind Richtung Richtung ET Solar Taupunkt Windchill Windben Empfang
25.04.2019 02:00 23,7 C 10,8 C 6,7 C 15,0 C 36 % 75 % 1010,6 hPa 0,0 l/m 4,8 km/h (1 Bft) O 90 0,025 mm 0 W/m 6,5 C 10,8 C 6,4 km/h (2 Bft) 100,00 %
25.04.2019 01:59 23,7 C 10,8 C 6,7 C 15,0 C 35 % 75 % 1010,5 hPa 0,0 l/m 4,8 km/h (1 Bft) O 90 0,000 mm 0 W/m 6,5 C 10,8 C 4,8 km/h (1 Bft) 100,00 %
25.04.2019 01:58 23,7 C 10,8 C 6,7 C 15,0 C 36 % 75 % 1010,5 hPa 0,0 l/m 3,2 km/h (1 Bft) O 90 0,000 mm 0 W/m 6,5 C 10,8 C 4,8 km/h (1 Bft) 100,00 %
25.04.2019 01:57 23,7 C 10,8 C 7,2 C 15,0 C 35 % 75 % 1010,5 hPa 0,0 l/m 3,2 km/h (1 Bft) O 90 0,000 mm 0 W/m 6,5 C 10,8 C 4,8 km/h (1 Bft) 95,65 %
25.04.2019 01:56 23,7 C 10,8 C 7,2 C 15,0 C 35 % 75 % 1010,4 hPa 0,0 l/m 3,2 km/h (1 Bft) O 90 0,000 mm 0 W/m 6,5 C 10,8 C 4,8 km/h (1 Bft) 95,65 %
25.04.2019 01:55 23,7 C 10,8 C 7,2 C 15,0 C 35 % 75 % 1010,3 hPa 0,0 l/m 3,2 km/h (1 Bft) O 90 0,000 mm 0 W/m 6,5 C 10,8 C 4,8 km/h (1 Bft) 95,65 %
25.04.2019 01:54 23,7 C 10,8 C 7,8 C 15,0 C 35 % 75 % 1010,4 hPa 0,0 l/m 3,2 km/h (1 Bft) O 90 0,000 mm 0 W/m 6,5 C 10,8 C 3,2 km/h (1 Bft) 95,65 %
25.04.2019 01:53 23,7 C 10,8 C 7,8 C 15,0 C 35 % 75 % 1010,3 hPa 0,0 l/m 1,6 km/h (1 Bft) O 90 0,000 mm 0 W/m 6,5 C 10,8 C 3,2 km/h (1 Bft) 100,00 %
25.04.2019 01:52 23,7 C 10,8 C 8,3 C 15,0 C 35 % 75 % 1010,4 hPa 0,0 l/m 0,0 km/h (0 Bft) O 90 0,000 mm 0 W/m 6,5 C 10,8 C 1,6 km/h (1 Bft) 95,65 %
25.04.2019 01:51 23,7 C 10,8 C 8,3 C 15,0 C 35 % 74 % 1010,4 hPa 0,0 l/m 0,0 km/h (0 Bft) N 0 0,000 mm 0 W/m 6,4 C 10,8 C 0,0 km/h (0 Bft) 91,30 %
25.04.2019 01:50 23,7 C 10,8 C 8,3 C 15,0 C 35 % 74 % 1010,3 hPa 0,0 l/m 0,0 km/h (0 Bft) N 0 0,000 mm 0 W/m 6,4 C 10,8 C 0,0 km/h (0 Bft) 95,65 %
25.04.2019 01:49 23,7 C 10,8 C 8,3 C 15,0 C 35 % 74 % 1010,3 hPa 0,0 l/m 0,0 km/h (0 Bft) N 0 0,000 mm 0 W/m 6,4 C 10,8 C 0,0 km/h (0 Bft) 100,00 %
25.04.2019 01:48 23,7 C 10,8 C 8,3 C 15,0 C 35 % 74 % 1010,3 hPa 0,0 l/m 0,0 km/h (0 Bft) N 0 0,000 mm 0 W/m 6,4 C 10,8 C 0,0 km/h (0 Bft) 86,96 %
25.04.2019 01:47 23,7 C 10,8 C 8,3 C 15,0 C 35 % 74 % 1010,4 hPa 0,0 l/m 1,6 km/h (1 Bft) O 90 0,000 mm 0 W/m 6,4 C 10,8 C 3,2 km/h (1 Bft) 100,00 %
25.04.2019 01:46 23,7 C 10,9 C 8,9 C 15,0 C 35 % 73 % 1010,4 hPa 0,0 l/m 1,6 km/h (1 Bft) O 90 0,000 mm 0 W/m 6,3 C 10,9 C 3,2 km/h (1 Bft) 95,65 %
25.04.2019 01:45 23,7 C 11,0 C 8,3 C 15,0 C 36 % 74 % 1010,4 hPa 0,0 l/m 3,2 km/h (1 Bft) O 90 0,000 mm 0 W/m 6,5 C 11,0 C 3,2 km/h (1 Bft) 95,65 %
25.04.2019 01:44 23,7 C 11,1 C 8,3 C 15,0 C 35 % 74 % 1010,4 hPa 0,0 l/m 3,2 km/h (1 Bft) O 90 0,000 mm 0 W/m 6,6 C 11,1 C 4,8 km/h (1 Bft) 100,00 %
25.04.2019 01:43 23,7 C 11,1 C 8,3 C 15,0 C 35 % 74 % 1010,4 hPa 0,0 l/m 4,8 km/h (1 Bft) O 90 0,000 mm 0 W/m 6,6 C 11,1 C 4,8 km/h (1 Bft) 100,00 %
25.04.2019 01:42 23,7 C 11,1 C 8,3 C 15,0 C 35 % 74 % 1010,5 hPa 0,0 l/m 3,2 km/h (1 Bft) O 90 0,000 mm 0 W/m 6,6 C 11,1 C 3,2 km/h (1 Bft) 100,00 %
25.04.2019 01:41 23,7 C 11,1 C 8,3 C 15,0 C 35 % 74 % 1010,4 hPa 0,0 l/m 3,2 km/h (1 Bft) O 90 0,000 mm 0 W/m 6,6 C 11,1 C 4,8 km/h (1 Bft) 100,00 %
25.04.2019 01:40 23,7 C 11,1 C 8,3 C 15,0 C 35 % 74 % 1010,4 hPa 0,0 l/m 3,2 km/h (1 Bft) O 90 0,000 mm 0 W/m 6,6 C 11,1 C 4,8 km/h (1 Bft) 100,00 %
25.04.2019 01:39 23,7 C 11,1 C 8,3 C 15,0 C 35 % 73 % 1010,4 hPa 0,0 l/m 1,6 km/h (1 Bft) O 90 0,000 mm 0 W/m 6,4 C 11,1 C 3,2 km/h (1 Bft) 100,00 %
25.04.2019 01:38 23,7 C 11,1 C 8,3 C 15,0 C 35 % 73 % 1010,4 hPa 0,0 l/m 0,0 km/h (0 Bft) N 0 0,000 mm 0 W/m 6,4 C 11,1 C 0,0 km/h (0 Bft) 100,00 %
25.04.2019 01:37 23,7 C 11,1 C 8,3 C 15,0 C 35 % 73 % 1010,3 hPa 0,0 l/m 0,0 km/h (0 Bft) N 0 0,000 mm 0 W/m 6,4 C 11,1 C 0,0 km/h (0 Bft) 100,00 %
25.04.2019 01:36 23,7 C 11,2 C 8,3 C 15,0 C 35 % 73 % 1010,3 hPa 0,0 l/m 0,0 km/h (0 Bft) N 0 0,000 mm 0 W/m 6,5 C 11,2 C 0,0 km/h (0 Bft) 100,00 %
25.04.2019 01:35 23,7 C 11,2 C 8,3 C 15,0 C 35 % 74 % 1010,3 hPa 0,0 l/m 0,0 km/h (0 Bft) N 0 0,000 mm 0 W/m 6,7 C 11,2 C 0,0 km/h (0 Bft) 100,00 %
25.04.2019 01:34 23,7 C 11,2 C 8,3 C 15,0 C 35 % 73 % 1010,4 hPa 0,0 l/m 0,0 km/h (0 Bft) O 90 0,000 mm 0 W/m 6,5 C 11,2 C 1,6 km/h (1 Bft) 100,00 %
25.04.2019 01:33 23,7 C 11,2 C 8,3 C 15,0 C 35 % 73 % 1010,3 hPa 0,0 l/m 1,6 km/h (1 Bft) O 90 0,000 mm 0 W/m 6,5 C 11,2 C 1,6 km/h (1 Bft) 100,00 %
25.04.2019 01:32 23,7 C 11,2 C 8,3 C 15,0 C 35 % 73 % 1010,3 hPa 0,0 l/m 1,6 km/h (1 Bft) O 90 0,000 mm 0 W/m 6,5 C 11,2 C 1,6 km/h (1 Bft) 100,00 %
25.04.2019 01:31 23,7 C 11,2 C 8,9 C 15,0 C 35 % 73 % 1010,3 hPa 0,0 l/m 1,6 km/h (1 Bft) O 90 0,000 mm 0 W/m 6,5 C 11,2 C 1,6 km/h (1 Bft) 100,00 %
25.04.2019 01:30 23,7 C 11,2 C 8,9 C 15,0 C 35 % 73 % 1010,3 hPa 0,0 l/m 3,2 km/h (1 Bft) O 90 0,000 mm 0 W/m 6,5 C 11,2 C 3,2 km/h (1 Bft) 100,00 %
25.04.2019 01:29 23,7 C 11,2 C 8,9 C 15,0 C 35 % 73 % 1010,3 hPa 0,0 l/m 1,6 km/h (1 Bft) O 90 0,000 mm 0 W/m 6,5 C 11,2 C 3,2 km/h (1 Bft) 100,00 %
25.04.2019 01:28 23,7 C 11,3 C 8,9 C 15,0 C 35 % 73 % 1010,3 hPa 0,0 l/m 3,2 km/h (1 Bft) O 90 0,000 mm 0 W/m 6,6 C 11,3 C 4,8 km/h (1 Bft) 100,00 %
25.04.2019 01:27 23,7 C 11,3 C 8,9 C 15,0 C 35 % 73 % 1010,2 hPa 0,0 l/m 3,2 km/h (1 Bft) O 90 0,000 mm 0 W/m 6,6 C 11,3 C 4,8 km/h (1 Bft) 100,00 %
25.04.2019 01:26 23,7 C 11,3 C 8,3 C 15,0 C 35 % 73 % 1010,2 hPa 0,0 l/m 3,2 km/h (1 Bft) O 90 0,000 mm 0 W/m 6,6 C 11,3 C 3,2 km/h (1 Bft) 95,65 %
25.04.2019 01:25 23,7 C 11,3 C 8,3 C 15,0 C 35 % 73 % 1010,1 hPa 0,0 l/m 3,2 km/h (1 Bft) O 90 0,000 mm 0 W/m 6,6 C 11,3 C 4,8 km/h (1 Bft) 100,00 %
25.04.2019 01:24 23,7 C 11,4 C 8,3 C 15,0 C 35 % 73 % 1010,0 hPa 0,0 l/m 0,0 km/h (0 Bft) O 90 0,000 mm 0 W/m 6,7 C 11,4 C 1,6 km/h (1 Bft) 100,00 %
25.04.2019 01:23 23,7 C 11,4 C 7,8 C 15,0 C 35 % 73 % 1010,1 hPa 0,0 l/m 0,0 km/h (0 Bft) N 0 0,000 mm 0 W/m 6,7 C 11,4 C 0,0 km/h (0 Bft) 100,00 %
25.04.2019 01:22 23,7 C 11,4 C 7,8 C 15,0 C 35 % 73 % 1010,1 hPa 0,0 l/m 0,0 km/h (0 Bft) N 0 0,000 mm 0 W/m 6,7 C 11,4 C 0,0 km/h (0 Bft) 100,00 %
25.04.2019 01:21 23,8 C 11,3 C 8,3 C 15,0 C 35 % 73 % 1010,0 hPa 0,0 l/m 0,0 km/h (0 Bft) O 90 0,000 mm 0 W/m 6,6 C 11,3 C 1,6 km/h (1 Bft) 100,00 %
25.04.2019 01:20 23,8 C 11,4 C 8,3 C 15,0 C 35 % 73 % 1010,0 hPa 0,0 l/m 3,2 km/h (1 Bft) O 90 0,000 mm 0 W/m 6,7 C 11,4 C 3,2 km/h (1 Bft) 100,00 %
25.04.2019 01:19 23,8 C 11,3 C 8,3 C 15,0 C 35 % 73 % 1010,0 hPa 0,0 l/m 3,2 km/h (1 Bft) O 90 0,000 mm 0 W/m 6,6 C 11,3 C 3,2 km/h (1 Bft) 100,00 %
25.04.2019 01:18 23,8 C 11,3 C 8,3 C 15,0 C 35 % 73 % 1010,0 hPa 0,0 l/m 3,2 km/h (1 Bft) O 90 0,000 mm 0 W/m 6,6 C 11,3 C 3,2 km/h (1 Bft) 100,00 %
25.04.2019 01:17 23,8 C 11,3 C 7,8 C 15,0 C 35 % 73 % 1010,0 hPa 0,0 l/m 3,2 km/h (1 Bft) O 90 0,000 mm 0 W/m 6,6 C 11,3 C 3,2 km/h (1 Bft) 95,65 %
25.04.2019 01:16 23,8 C 11,4 C 7,8 C 15,0 C 35 % 73 % 1010,0 hPa 0,0 l/m 3,2 km/h (1 Bft) O 90 0,000 mm 0 W/m 6,7 C 11,4 C 4,8 km/h (1 Bft) 100,00 %
25.04.2019 01:15 23,8 C 11,4 C 7,8 C 15,0 C 35 % 73 % 1010,0 hPa 0,0 l/m 1,6 km/h (1 Bft) O 90 0,000 mm 0 W/m 6,7 C 11,4 C 3,2 km/h (1 Bft) 100,00 %
25.04.2019 01:14 23,8 C 11,3 C 7,8 C 15,6 C 35 % 73 % 1009,9 hPa 0,0 l/m 1,6 km/h (1 Bft) O 90 0,000 mm 0 W/m 6,6 C 11,3 C 3,2 km/h (1 Bft) 100,00 %
25.04.2019 01:13 23,8 C 11,4 C 7,8 C 15,6 C 35 % 73 % 1009,8 hPa 0,0 l/m 1,6 km/h (1 Bft) O 90 0,000 mm 0 W/m 6,7 C 11,4 C 3,2 km/h (1 Bft) 100,00 %
25.04.2019 01:12 23,8 C 11,4 C 7,8 C 15,6 C 35 % 73 % 1009,9 hPa 0,0 l/m 3,2 km/h (1 Bft) O 90 0,000 mm 0 W/m 6,7 C 11,4 C 3,2 km/h (1 Bft) 95,65 %
25.04.2019 01:11 23,8 C 11,3 C 7,8 C 15,6 C 35 % 73 % 1009,9 hPa 0,0 l/m 3,2 km/h (1 Bft) O 90 0,000 mm 0 W/m 6,6 C 11,3 C 3,2 km/h (1 Bft) 100,00 %
25.04.2019 01:10 23,8 C 11,4 C 7,8 C 15,6 C 35 % 73 % 1009,9 hPa 0,0 l/m 3,2 km/h (1 Bft) O 90 0,000 mm 0 W/m 6,7 C 11,4 C 3,2 km/h (1 Bft) 100,00 %
25.04.2019 01:09 23,8 C 11,4 C 8,3 C 15,6 C 35 % 72 % 1009,9 hPa 0,0 l/m 1,6 km/h (1 Bft) O 90 0,000 mm 0 W/m 6,5 C 11,4 C 3,2 km/h (1 Bft) 100,00 %
25.04.2019 01:08 23,8 C 11,4 C 8,3 C 15,6 C 35 % 72 % 1009,9 hPa 0,0 l/m 0,0 km/h (0 Bft) N 0 0,000 mm 0 W/m 6,5 C 11,4 C 0,0 km/h (0 Bft) 100,00 %
25.04.2019 01:07 23,8 C 11,4 C 8,3 C 15,6 C 35 % 72 % 1010,0 hPa 0,0 l/m 0,0 km/h (0 Bft) N 0 0,000 mm 0 W/m 6,5 C 11,4 C 0,0 km/h (0 Bft) 100,00 %
25.04.2019 01:06 23,8 C 11,4 C 8,3 C 15,6 C 35 % 72 % 1010,0 hPa 0,0 l/m 0,0 km/h (0 Bft) O 90 0,000 mm 0 W/m 6,5 C 11,4 C 1,6 km/h (1 Bft) 100,00 %
25.04.2019 01:05 23,8 C 11,4 C 8,3 C 15,6 C 35 % 72 % 1009,9 hPa 0,0 l/m 1,6 km/h (1 Bft) O 90 0,000 mm 0 W/m 6,5 C 11,4 C 1,6 km/h (1 Bft) 95,65 %
25.04.2019 01:04 23,8 C 11,4 C 8,3 C 15,6 C 35 % 73 % 1010,0 hPa 0,0 l/m 0,0 km/h (0 Bft) O 90 0,000 mm 0 W/m 6,7 C 11,4 C 1,6 km/h (1 Bft) 100,00 %
25.04.2019 01:03 23,8 C 11,4 C 8,3 C 15,6 C 35 % 73 % 1009,9 hPa 0,0 l/m 0,0 km/h (0 Bft) N 0 0,000 mm 0 W/m 6,7 C 11,4 C 0,0 km/h (0 Bft) 100,00 %
25.04.2019 01:02 23,8 C 11,4 C 8,9 C 15,6 C 35 % 73 % 1009,9 hPa 0,0 l/m 0,0 km/h (0 Bft) N 0 0,000 mm 0 W/m 6,7 C 11,4 C 0,0 km/h (0 Bft) 95,65 %
25.04.2019 01:01 23,8 C 11,4 C 8,9 C 15,6 C 35 % 73 % 1009,9 hPa 0,0 l/m 0,0 km/h (0 Bft) O 90 0,000 mm 0 W/m 6,7 C 11,4 C 1,6 km/h (1 Bft) 100,00 %
25.04.2019 01:00 23,8 C 11,4 C 8,9 C 15,6 C 35 % 72 % 1009,9 hPa 0,0 l/m 1,6 km/h (1 Bft) O 90 0,025 mm 0 W/m 6,5 C 11,4 C 3,2 km/h (1 Bft) 100,00 %
25.04.2019 00:59 23,8 C 11,4 C 8,3 C 15,6 C 35 % 72 % 1009,9 hPa 0,0 l/m 1,6 km/h (1 Bft) O 90 0,000 mm 0 W/m 6,5 C 11,4 C 3,2 km/h (1 Bft) 100,00 %
25.04.2019 00:58 23,8 C 11,4 C 8,3 C 15,6 C 35 % 72 % 1009,9 hPa 0,0 l/m 1,6 km/h (1 Bft) O 90 0,000 mm 0 W/m 6,5 C 11,4 C 3,2 km/h (1 Bft) 100,00 %
25.04.2019 00:57 23,8 C 11,5 C 8,3 C 15,6 C 35 % 73 % 1009,9 hPa 0,0 l/m 1,6 km/h (1 Bft) O 90 0,000 mm 0 W/m 6,8 C 11,5 C 3,2 km/h (1 Bft) 100,00 %
25.04.2019 00:56 23,8 C 11,5 C 8,3 C 15,6 C 35 % 72 % 1009,9 hPa 0,0 l/m 1,6 km/h (1 Bft) O 90 0,000 mm 0 W/m 6,6 C 11,5 C 1,6 km/h (1 Bft) 91,30 %
25.04.2019 00:55 23,8 C 11,5 C 8,3 C 15,6 C 35 % 72 % 1009,9 hPa 0,0 l/m 0,0 km/h (0 Bft) N 0 0,000 mm 0 W/m 6,6 C 11,5 C 0,0 km/h (0 Bft) 95,65 %
25.04.2019 00:54 23,8 C 11,5 C 8,3 C 15,6 C 35 % 72 % 1009,9 hPa 0,0 l/m 0,0 km/h (0 Bft) N 0 0,000 mm 0 W/m 6,6 C 11,5 C 0,0 km/h (0 Bft) 100,00 %
25.04.2019 00:53 23,8 C 11,6 C 8,3 C 15,6 C 35 % 72 % 1009,9 hPa 0,0 l/m 0,0 km/h (0 Bft) N 0 0,000 mm 0 W/m 6,7 C 11,6 C 0,0 km/h (0 Bft) 100,00 %
25.04.2019 00:52 23,8 C 11,6 C 8,3 C 15,6 C 35 % 72 % 1009,9 hPa 0,0 l/m 0,0 km/h (0 Bft) N 0 0,000 mm 0 W/m 6,7 C 11,6 C 0,0 km/h (0 Bft) 95,65 %
25.04.2019 00:51 23,8 C 11,6 C 8,3 C 15,6 C 35 % 72 % 1009,9 hPa 0,0 l/m 0,0 km/h (0 Bft) N 0 0,000 mm 0 W/m 6,7 C 11,6 C 0,0 km/h (0 Bft) 95,65 %
25.04.2019 00:50 23,8 C 11,6 C 8,3 C 15,6 C 35 % 72 % 1009,9 hPa 0,0 l/m 0,0 km/h (0 Bft) N 0 0,000 mm 0 W/m 6,7 C 11,6 C 0,0 km/h (0 Bft) 95,65 %
25.04.2019 00:49 23,8 C 11,6 C 8,3 C 15,6 C 35 % 72 % 1009,9 hPa 0,0 l/m 0,0 km/h (0 Bft) O 90 0,000 mm 0 W/m 6,7 C 11,6 C 1,6 km/h (1 Bft) 100,00 %
25.04.2019 00:48 23,8 C 11,6 C 8,9 C 15,6 C 35 % 72 % 1009,9 hPa 0,0 l/m 0,0 km/h (0 Bft) O 90 0,000 mm 0 W/m 6,7 C 11,6 C 1,6 km/h (1 Bft) 100,00 %
25.04.2019 00:47 23,8 C 11,6 C 8,9 C 15,6 C 35 % 72 % 1009,8 hPa 0,0 l/m 1,6 km/h (1 Bft) O 90 0,000 mm 0 W/m 6,7 C 11,6 C 1,6 km/h (1 Bft) 95,65 %
25.04.2019 00:46 23,8 C 11,7 C 8,9 C 15,6 C 35 % 72 % 1009,9 hPa 0,0 l/m 1,6 km/h (1 Bft) O 90 0,000 mm 0 W/m 6,8 C 11,7 C 3,2 km/h (1 Bft) 100,00 %
25.04.2019 00:45 23,8 C 11,7 C 8,9 C 15,6 C 35 % 71 % 1009,8 hPa 0,0 l/m 1,6 km/h (1 Bft) O 90 0,000 mm 0 W/m 6,6 C 11,7 C 3,2 km/h (1 Bft) 91,30 %
25.04.2019 00:44 23,8 C 11,7 C 8,9 C 15,6 C 35 % 71 % 1009,8 hPa 0,0 l/m 1,6 km/h (1 Bft) O 90 0,000 mm 0 W/m 6,6 C 11,7 C 3,2 km/h (1 Bft) 100,00 %
25.04.2019 00:43 23,8 C 11,7 C 8,9 C 15,6 C 35 % 71 % 1009,7 hPa 0,0 l/m 1,6 km/h (1 Bft) O 90 0,000 mm 0 W/m 6,6 C 11,7 C 3,2 km/h (1 Bft) 91,30 %
25.04.2019 00:42 23,8 C 11,8 C 9,4 C 15,6 C 35 % 70 % 1009,7 hPa 0,0 l/m 3,2 km/h (1 Bft) O 90 0,000 mm 0 W/m 6,5 C 11,8 C 3,2 km/h (1 Bft) 100,00 %
25.04.2019 00:41 23,8 C 11,8 C 9,4 C 15,6 C 35 % 70 % 1009,7 hPa 0,0 l/m 1,6 km/h (1 Bft) O 90 0,000 mm 0 W/m 6,5 C 11,8 C 3,2 km/h (1 Bft) 91,30 %
25.04.2019 00:40 23,8 C 11,8 C 8,9 C 15,6 C 35 % 70 % 1009,7 hPa 0,0 l/m 1,6 km/h (1 Bft) O 90 0,000 mm 0 W/m 6,5 C 11,8 C 3,2 km/h (1 Bft) 95,65 %
25.04.2019 00:39 23,8 C 11,9 C 8,9 C 15,6 C 35 % 71 % 1009,6 hPa 0,0 l/m 3,2 km/h (1 Bft) O 90 0,000 mm 0 W/m 6,8 C 11,9 C 4,8 km/h (1 Bft) 100,00 %
25.04.2019 00:38 23,8 C 11,9 C 8,9 C 15,6 C 35 % 71 % 1009,8 hPa 0,0 l/m 3,2 km/h (1 Bft) O 90 0,000 mm 0 W/m 6,8 C 11,9 C 4,8 km/h (1 Bft) 86,96 %
25.04.2019 00:37 23,8 C 11,9 C 8,9 C 15,6 C 35 % 71 % 1009,7 hPa 0,0 l/m 3,2 km/h (1 Bft) O 90 0,000 mm 0 W/m 6,8 C 11,9 C 4,8 km/h (1 Bft) 100,00 %
25.04.2019 00:36 23,8 C 11,9 C 8,9 C 15,6 C 35 % 71 % 1009,7 hPa 0,0 l/m 3,2 km/h (1 Bft) O 90 0,000 mm 0 W/m 6,8 C 11,9 C 4,8 km/h (1 Bft) 86,96 %
25.04.2019 00:35 23,8 C 11,9 C 8,9 C 15,6 C 35 % 71 % 1009,7 hPa 0,0 l/m 1,6 km/h (1 Bft) O 90 0,000 mm 0 W/m 6,8 C 11,9 C 3,2 km/h (1 Bft) 100,00 %
25.04.2019 00:34 23,8 C 12,0 C 8,3 C 15,6 C 35 % 71 % 1009,7 hPa 0,0 l/m 1,6 km/h (1 Bft) O 90 0,000 mm 0 W/m 6,9 C 12,0 C 1,6 km/h (1 Bft) 91,30 %
25.04.2019 00:33 23,8 C 12,0 C 8,3 C 15,6 C 35 % 71 % 1009,5 hPa 0,0 l/m 1,6 km/h (1 Bft) O 90 0,000 mm 0 W/m 6,9 C 12,0 C 3,2 km/h (1 Bft) 100,00 %
25.04.2019 00:32 23,8 C 12,0 C 8,3 C 15,6 C 35 % 71 % 1009,6 hPa 0,0 l/m 1,6 km/h (1 Bft) O 90 0,000 mm 0 W/m 6,9 C 12,0 C 3,2 km/h (1 Bft) 86,96 %
25.04.2019 00:31 23,8 C 12,0 C 8,3 C 15,6 C 35 % 71 % 1009,5 hPa 0,0 l/m 1,6 km/h (1 Bft) O 90 0,000 mm 0 W/m 6,9 C 12,0 C 3,2 km/h (1 Bft) 95,65 %
25.04.2019 00:30 23,8 C 12,0 C 8,9 C 15,6 C 35 % 71 % 1009,4 hPa 0,0 l/m 3,2 km/h (1 Bft) O 90 0,000 mm 0 W/m 6,9 C 12,0 C 3,2 km/h (1 Bft) 100,00 %
25.04.2019 00:29 23,8 C 12,1 C 8,9 C 15,6 C 35 % 71 % 1009,4 hPa 0,0 l/m 1,6 km/h (1 Bft) O 90 0,000 mm 0 W/m 7,0 C 12,1 C 3,2 km/h (1 Bft) 95,65 %
25.04.2019 00:28 23,8 C 12,1 C 8,9 C 15,6 C 35 % 71 % 1009,5 hPa 0,0 l/m 0,0 km/h (0 Bft) N 0 0,000 mm 0 W/m 7,0 C 12,1 C 0,0 km/h (0 Bft) 100,00 %
25.04.2019 00:27 23,8 C 12,1 C 9,4 C 15,6 C 35 % 71 % 1009,4 hPa 0,0 l/m 0,0 km/h (0 Bft) O 90 0,000 mm 0 W/m 7,0 C 12,1 C 1,6 km/h (1 Bft) 100,00 %
25.04.2019 00:26 23,8 C 12,1 C 9,4 C 15,6 C 35 % 71 % 1009,4 hPa 0,0 l/m 1,6 km/h (1 Bft) O 90 0,000 mm 0 W/m 7,0 C 12,1 C 1,6 km/h (1 Bft) 100,00 %
25.04.2019 00:25 23,8 C 12,1 C 9,4 C 15,6 C 35 % 70 % 1009,5 hPa 0,0 l/m 1,6 km/h (1 Bft) O 90 0,000 mm 0 W/m 6,8 C 12,1 C 3,2 km/h (1 Bft) 100,00 %
25.04.2019 00:24 23,8 C 12,1 C 9,4 C 15,6 C 35 % 70 % 1009,4 hPa 0,0 l/m 1,6 km/h (1 Bft) O 90 0,000 mm 0 W/m 6,8 C 12,1 C 3,2 km/h (1 Bft) 100,00 %
25.04.2019 00:23 23,8 C 12,2 C 9,4 C 15,6 C 35 % 70 % 1009,5 hPa 0,0 l/m 1,6 km/h (1 Bft) O 90 0,000 mm 0 W/m 6,9 C 12,2 C 3,2 km/h (1 Bft) 95,65 %
25.04.2019 00:22 23,8 C 12,2 C 9,4 C 15,6 C 35 % 70 % 1009,4 hPa 0,0 l/m 1,6 km/h (1 Bft) O 90 0,000 mm 0 W/m 6,9 C 12,2 C 3,2 km/h (1 Bft) 100,00 %
25.04.2019 00:21 23,8 C 12,2 C 9,4 C 15,6 C 35 % 70 % 1009,5 hPa 0,0 l/m 3,2 km/h (1 Bft) O 90 0,000 mm 0 W/m 6,9 C 12,2 C 3,2 km/h (1 Bft) 95,65 %
25.04.2019 00:20 23,8 C 12,3 C 9,4 C 15,6 C 35 % 70 % 1009,4 hPa 0,0 l/m 3,2 km/h (1 Bft) O 90 0,000 mm 0 W/m 7,0 C 12,3 C 4,8 km/h (1 Bft) 100,00 %
25.04.2019 00:19 23,8 C 12,3 C 9,4 C 15,6 C 35 % 70 % 1009,5 hPa 0,0 l/m 3,2 km/h (1 Bft) O 90 0,000 mm 0 W/m 7,0 C 12,3 C 4,8 km/h (1 Bft) 100,00 %
25.04.2019 00:18 23,8 C 12,4 C 8,9 C 15,6 C 35 % 70 % 1009,5 hPa 0,0 l/m 1,6 km/h (1 Bft) O 90 0,000 mm 0 W/m 7,1 C 12,4 C 3,2 km/h (1 Bft) 100,00 %
25.04.2019 00:17 23,8 C 12,4 C 8,9 C 15,6 C 35 % 70 % 1009,5 hPa 0,0 l/m 0,0 km/h (0 Bft) N 0 0,000 mm 0 W/m 7,1 C 12,4 C 0,0 km/h (0 Bft) 100,00 %
25.04.2019 00:16 23,8 C 12,4 C 8,9 C 15,6 C 35 % 70 % 1009,5 hPa 0,0 l/m 0,0 km/h (0 Bft) N 0 0,000 mm 0 W/m 7,1 C 12,4 C 0,0 km/h (0 Bft) 95,65 %
25.04.2019 00:15 23,8 C 12,4 C 8,9 C 15,6 C 35 % 70 % 1009,5 hPa 0,0 l/m 0,0 km/h (0 Bft) O 90 0,000 mm 0 W/m 7,1 C 12,4 C 1,6 km/h (1 Bft) 100,00 %
25.04.2019 00:14 23,9 C 12,5 C 8,9 C 15,6 C 35 % 70 % 1009,5 hPa 0,0 l/m 1,6 km/h (1 Bft) O 90 0,000 mm 0 W/m 7,2 C 12,5 C 3,2 km/h (1 Bft) 100,00 %
25.04.2019 00:13 23,9 C 12,6 C 8,9 C 15,6 C 35 % 69 % 1009,5 hPa 0,0 l/m 3,2 km/h (1 Bft) O 90 0,000 mm 0 W/m 7,1 C 12,6 C 3,2 km/h (1 Bft) 100,00 %
25.04.2019 00:12 23,9 C 12,6 C 8,9 C 15,6 C 35 % 68 % 1009,5 hPa 0,0 l/m 3,2 km/h (1 Bft) O 90 0,000 mm 0 W/m 6,9 C 12,6 C 4,8 km/h (1 Bft) 100,00 %
25.04.2019 00:11 23,9 C 12,7 C 8,9 C 15,6 C 35 % 68 % 1009,4 hPa 0,0 l/m 1,6 km/h (1 Bft) O 90 0,000 mm 0 W/m 6,9 C 12,7 C 3,2 km/h (1 Bft) 95,65 %
25.04.2019 00:10 23,9 C 12,7 C 8,9 C 15,6 C 35 % 68 % 1009,3 hPa 0,0 l/m 1,6 km/h (1 Bft) O 90 0,000 mm 0 W/m 6,9 C 12,7 C 3,2 km/h (1 Bft) 100,00 %
25.04.2019 00:09 23,9 C 12,7 C 9,4 C 15,6 C 35 % 68 % 1009,3 hPa 0,0 l/m 3,2 km/h (1 Bft) O 90 0,000 mm 0 W/m 6,9 C 12,7 C 3,2 km/h (1 Bft) 100,00 %
25.04.2019 00:08 23,9 C 12,8 C 9,4 C 15,6 C 35 % 68 % 1009,3 hPa 0,0 l/m 3,2 km/h (1 Bft) O 90 0,000 mm 0 W/m 7,0 C 12,8 C 3,2 km/h (1 Bft) 100,00 %
25.04.2019 00:07 23,9 C 12,8 C 8,9 C 15,6 C 35 % 68 % 1009,3 hPa 0,0 l/m 1,6 km/h (1 Bft) O 90 0,000 mm 0 W/m 7,0 C 12,8 C 3,2 km/h (1 Bft) 100,00 %
25.04.2019 00:06 23,9 C 12,8 C 8,9 C 15,6 C 35 % 68 % 1009,4 hPa 0,0 l/m 3,2 km/h (1 Bft) O 90 0,000 mm 0 W/m 7,0 C 12,8 C 4,8 km/h (1 Bft) 100,00 %
25.04.2019 00:05 23,9 C 12,8 C 8,9 C 15,6 C 35 % 68 % 1009,3 hPa 0,0 l/m 0,0 km/h (0 Bft) O 90 0,000 mm 0 W/m 7,0 C 12,8 C 1,6 km/h (1 Bft) 100,00 %
25.04.2019 00:04 23,9 C 12,8 C 8,9 C 15,6 C 35 % 68 % 1009,4 hPa 0,0 l/m 0,0 km/h (0 Bft) N 0 0,000 mm 0 W/m 7,0 C 12,8 C 0,0 km/h (0 Bft) 100,00 %
25.04.2019 00:03 23,9 C 12,9 C 8,9 C 15,6 C 35 % 68 % 1009,3 hPa 0,0 l/m 0,0 km/h (0 Bft) O 90 0,000 mm 0 W/m 7,1 C 12,9 C 1,6 km/h (1 Bft) 100,00 %
25.04.2019 00:02 23,9 C 12,9 C 8,9 C 15,6 C 35 % 68 % 1009,3 hPa 0,0 l/m 1,6 km/h (1 Bft) O 90 0,000 mm 0 W/m 7,1 C 12,9 C 3,2 km/h (1 Bft) 100,00 %
25.04.2019 00:01 23,8 C 12,9 C 8,9 C 15,6 C 35 % 68 % 1009,3 hPa 0,0 l/m 0,0 km/h (0 Bft) N 0 0,000 mm 0 W/m 7,1 C 12,9 C 0,0 km/h (0 Bft) 95,65 %
25.04.2019 00:00 23,9 C 13,0 C 8,9 C 15,6 C 35 % 68 % 1009,3 hPa 0,0 l/m 0,0 km/h (0 Bft) O 90 0,025 mm 0 W/m 7,2 C 13,0 C 1,6 km/h (1 Bft) 100,00 %
_ Min-Zeit 01:22 01:47 01:58 01:15 00:00 00:00 00:00 - 00:00 - - - - 01:46 01:47 00:01 00:32
Minimum _ 23,7 C 10,8 C 6,7 C 15,0 C 35 % 68 % 1009,3 hPa - 0,0 km/h (0 Bft) - - - - 6,3 C 10,8 C 0,0 km/h (0 Bft) 86,96 %
_ Max-Zeit 00:00 00:00 00:08 00:00 01:45 01:52 02:00 00:00 01:43 - - 00:00 00:00 00:00 00:00 02:00 00:00
Maximum _ 23,9 C 13,0 C 9,4 C 15,6 C 36 % 75 % 1010,6 hPa 0,0 l/m 4,8 km/h
O (1 Bft)
- - 0,025 mm 0 W/m 7,2 C 13,0 C 6,4 km/h
O (2 Bft)
100,00 %
Durchschnitt _ 23,8 C 11,7 C 8,5 C 15,4 C 35 % 72 % 1009,9 hPa #0,0 l/m 1,6 km/h (1 Bft) O - #0,075 mm 0 W/m 6,7 C 11,7 C 2,5 km/h (1 Bft) 98,26 %